GEC8262 EDDN-LICA

Flight info

Callsign GEC8262
Flight time 1h 54m
Altitude 33000
Route RODIS1G RODIS L604 RUDNO M736 RDG/N0483F340 M736 DOSEL/N0486F330 M736 LIZUM N503 LIKDA/N0422F190 N503 CHI DCT SOR DCT SOBRI Q182 BAGIX
Aircraft MD11/H-SDE1E2E3FGHIJ2J3J4J5M1RWXY/LB1D1

Departure

Time 2026-04-24 20:53
Airport Nuremberg Airport (EDDN)

Arrival

Time 2026-04-24 22:47
Airport Lamezia Terme Sant'Eufemia International Airport (LICA)
Time Latitude Longitude Altitude Speed Heading
2026-04-24 20:05 49.49548 11.08435 1040 ft 0 kts
2026-04-24 20:47 49.49550 11.08436 1040 ft 2 kts
2026-04-24 20:47 49.49569 11.08440 1040 ft 1 kts
2026-04-24 20:47 49.49583 11.08452 1041 ft 4 kts 34°
2026-04-24 20:48 49.49600 11.08547 1043 ft 15 kts 88°
2026-04-24 20:48 49.49587 11.08718 1044 ft 15 kts 99°
2026-04-24 20:48 49.49572 11.08866 1045 ft 12 kts 98°
2026-04-24 20:48 49.49559 11.09004 1046 ft 14 kts 98°
2026-04-24 20:49 49.49544 11.09160 1049 ft 15 kts 98°
2026-04-24 20:49 49.49530 11.09294 1052 ft 10 kts 96°
2026-04-24 20:49 49.49539 11.09366 1053 ft 6 kts 69°
2026-04-24 20:49 49.49557 11.09416 1055 ft 4 kts 56°
2026-04-24 20:50 49.49574 11.09453 1056 ft 3 kts 54°
2026-04-24 20:50 49.49580 11.09464 1056 ft 0 kts 53°
2026-04-24 20:51 49.49600 11.09507 1057 ft 12 kts 53°
2026-04-24 20:51 49.49671 11.09565 1060 ft 9 kts 358°
2026-04-24 20:52 49.49693 11.09541 1061 ft 5 kts 307°
2026-04-24 20:52 49.49711 11.09430 1058 ft 17 kts 283°
2026-04-24 20:52 49.49768 11.08873 1048 ft 98 kts 278°
2026-04-24 20:52 49.49920 11.07438 1050 ft 170 kts 281°
2026-04-24 20:53 49.50133 11.05584 1801 ft 174 kts 281°
2026-04-24 20:53 49.50318 11.03776 2933 ft 167 kts 281°
2026-04-24 20:53 49.50475 11.02061 4008 ft 161 kts 280°
2026-04-24 20:53 49.50632 11.00190 4449 ft 192 kts 279°
2026-04-24 20:54 49.50753 10.98781 4615 ft 206 kts 279°
2026-04-24 20:54 49.50856 10.97618 4816 ft 209 kts 279°
2026-04-24 20:54 49.51056 10.95407 5282 ft 213 kts 279°
2026-04-24 20:54 49.51273 10.93026 5460 ft 238 kts 279°
2026-04-24 20:55 49.51673 10.90441 5657 ft 260 kts 299°
2026-04-24 20:55 49.52916 10.88431 6070 ft 262 kts 330°
2026-04-24 20:55 49.54672 10.87730 6897 ft 264 kts 360°
2026-04-24 20:55 49.56477 10.88268 7759 ft 271 kts 17°
2026-04-24 20:56 49.58284 10.89288 8646 ft 275 kts 19°
2026-04-24 20:56 49.60050 10.90363 9479 ft 280 kts 26°
2026-04-24 20:56 49.61565 10.92311 10314 ft 287 kts 50°
2026-04-24 20:56 49.62513 10.95149 10468 ft 320 kts 73°
2026-04-24 20:57 49.62690 10.98722 10619 ft 352 kts 95°
2026-04-24 20:57 49.61974 11.02447 11070 ft 369 kts 112°
2026-04-24 20:57 49.60813 11.06028 11833 ft 376 kts 117°
2026-04-24 20:57 49.59551 11.09590 12613 ft 381 kts 118°
2026-04-24 20:58 49.58283 11.13154 13354 ft 387 kts 116°
2026-04-24 20:58 49.57132 11.16924 14088 ft 391 kts 111°
2026-04-24 20:58 49.56208 11.20901 14730 ft 395 kts 106°
2026-04-24 20:58 49.55483 11.25013 15367 ft 400 kts 102°
2026-04-24 20:59 49.54887 11.29236 15979 ft 404 kts 100°
2026-04-24 20:59 49.54364 11.33528 16581 ft 409 kts 99°
2026-04-24 20:59 49.53882 11.37806 17187 ft 413 kts 98°
2026-04-24 20:59 49.53402 11.42206 17782 ft 417 kts 98°
2026-04-24 21:00 49.52920 11.46643 18348 ft 422 kts 98°
2026-04-24 21:00 49.52440 11.51050 18860 ft 426 kts 98°
2026-04-24 21:00 49.51949 11.55517 19345 ft 430 kts 98°
2026-04-24 21:00 49.51445 11.60077 19847 ft 433 kts 98°
2026-04-24 21:01 49.50934 11.64666 20303 ft 436 kts 98°
2026-04-24 21:01 49.50416 11.69293 20781 ft 440 kts 98°
2026-04-24 21:01 49.49894 11.73941 21271 ft 443 kts 98°
2026-04-24 21:01 49.49364 11.78637 21769 ft 446 kts 98°
2026-04-24 21:02 49.48837 11.83298 22271 ft 450 kts 98°
2026-04-24 21:02 49.48296 11.88057 22780 ft 453 kts 98°
2026-04-24 21:02 49.47736 11.92854 23256 ft 457 kts 100°
2026-04-24 21:02 49.46934 11.97616 23755 ft 461 kts 106°
2026-04-24 21:03 49.45913 12.02330 24202 ft 465 kts 109°
2026-04-24 21:03 49.44815 12.06949 24662 ft 467 kts 109°
2026-04-24 21:03 49.43661 12.11695 25143 ft 470 kts 110°
2026-04-24 21:03 49.42518 12.16420 25617 ft 473 kts 109°
2026-04-24 21:04 49.41396 12.21114 26085 ft 476 kts 109°
2026-04-24 21:04 49.40260 12.25904 26556 ft 479 kts 110°
2026-04-24 21:04 49.39011 12.30684 27002 ft 482 kts 114°
2026-04-24 21:04 49.37463 12.35264 27468 ft 484 kts 122°
2026-04-24 21:05 49.35509 12.39518 27918 ft 487 kts 130°
2026-04-24 21:05 49.33211 12.43234 28352 ft 488 kts 139°
2026-04-24 21:05 49.30544 12.46479 28787 ft 489 kts 147°
2026-04-24 21:05 49.27616 12.49138 29233 ft 490 kts 155°
2026-04-24 21:06 49.24474 12.51187 29657 ft 490 kts 163°
2026-04-24 21:06 49.21179 12.52592 30071 ft 490 kts 171°
2026-04-24 21:06 49.17852 12.53314 30409 ft 489 kts 179°
2026-04-24 21:06 49.14449 12.53459 30716 ft 490 kts 183°
2026-04-24 21:07 49.11016 12.53310 31015 ft 491 kts 185°
2026-04-24 21:07 49.07608 12.53055 31382 ft 491 kts 186°
2026-04-24 21:07 49.04194 12.52778 31780 ft 490 kts 186°
2026-04-24 21:07 49.00783 12.52482 32162 ft 488 kts 186°
2026-04-24 21:08 48.97438 12.52193 32548 ft 486 kts 186°
2026-04-24 21:08 48.94047 12.51911 32936 ft 485 kts 186°
2026-04-24 21:08 48.90704 12.51643 33080 ft 485 kts 186°
2026-04-24 21:08 48.87326 12.51379 33117 ft 485 kts 186°
2026-04-24 21:09 48.80566 12.50863 33116 ft 485 kts 185°
2026-04-24 21:09 48.73823 12.50351 33121 ft 485 kts 185°
2026-04-24 21:10 48.67124 12.49843 33118 ft 484 kts 185°
2026-04-24 21:10 48.60373 12.49332 33118 ft 484 kts 185°
2026-04-24 21:11 48.53630 12.48823 33118 ft 484 kts 185°
2026-04-24 21:11 48.46966 12.47852 33123 ft 482 kts 194°
2026-04-24 21:12 48.41723 12.45113 33121 ft 477 kts 209°
2026-04-24 21:12 48.38042 12.41507 33126 ft 475 kts 220°
2026-04-24 21:12 48.35534 12.38269 33127 ft 474 kts 224°
2026-04-24 21:13 48.30660 12.31536 33133 ft 475 kts 224°
2026-04-24 21:13 48.25733 12.24997 33132 ft 475 kts 222°
2026-04-24 21:14 48.20686 12.18548 33140 ft 475 kts 221°
2026-04-24 21:14 48.15608 12.12140 33138 ft 476 kts 221°
2026-04-24 21:15 48.10565 12.05788 33140 ft 476 kts 221°
2026-04-24 21:15 48.05511 11.99433 33140 ft 476 kts 221°
2026-04-24 21:16 48.00421 11.93046 33140 ft 477 kts 221°
2026-04-24 21:16 47.95312 11.86694 33141 ft 477 kts 219°
2026-04-24 21:17 47.89711 11.81503 33138 ft 480 kts 204°
2026-04-24 21:17 47.84315 11.79272 33139 ft 483 kts 188°
2026-04-24 21:18 47.76485 11.78811 33136 ft 485 kts 181°
2026-04-24 21:18 47.69761 11.78759 33148 ft 485 kts 182°
2026-04-24 21:19 47.63003 11.78494 33132 ft 485 kts 183°
2026-04-24 21:19 47.56246 11.78118 33146 ft 485 kts 183°
2026-04-24 21:20 47.46162 11.77539 33135 ft 485 kts 183°
2026-04-24 21:21 47.39389 11.77158 33136 ft 486 kts 183°
2026-04-24 21:21 47.32629 11.76782 33145 ft 486 kts 183°
2026-04-24 21:22 47.25883 11.76409 33135 ft 487 kts 183°
2026-04-24 21:22 47.19100 11.76033 33131 ft 487 kts 182°
2026-04-24 21:23 47.12351 11.75661 33125 ft 487 kts 182°
2026-04-24 21:23 47.05557 11.75297 33114 ft 488 kts 182°
2026-04-24 21:24 46.98767 11.74935 33118 ft 488 kts 182°
2026-04-24 21:24 46.92025 11.74567 33112 ft 488 kts 182°
2026-04-24 21:25 46.85240 11.74195 33105 ft 487 kts 182°
2026-04-24 21:25 46.78454 11.73825 33102 ft 488 kts 182°
2026-04-24 21:26 46.71659 11.73455 33095 ft 487 kts 182°
2026-04-24 21:26 46.64923 11.73090 33073 ft 486 kts 182°
2026-04-24 21:27 46.58148 11.72719 33068 ft 486 kts 182°
2026-04-24 21:27 46.51379 11.72342 33065 ft 486 kts 182°
2026-04-24 21:28 46.44653 11.71966 33064 ft 486 kts 182°
2026-04-24 21:28 46.37881 11.71591 33062 ft 486 kts 181°
2026-04-24 21:29 46.31113 11.71230 33065 ft 486 kts 181°
2026-04-24 21:29 46.24372 11.70876 33076 ft 487 kts 181°
2026-04-24 21:30 46.17604 11.70520 33074 ft 487 kts 181°
2026-04-24 21:30 46.10828 11.70163 33075 ft 486 kts 181°
2026-04-24 21:31 46.05204 11.69863 33080 ft 486 kts 181°
2026-04-24 21:31 45.98441 11.69498 33076 ft 486 kts 181°
2026-04-24 21:32 45.91659 11.69134 33079 ft 487 kts 181°
2026-04-24 21:32 45.84936 11.68775 33074 ft 487 kts 181°
2026-04-24 21:33 45.78152 11.68414 33068 ft 487 kts 181°
2026-04-24 21:33 45.71361 11.68069 33059 ft 487 kts 180°
2026-04-24 21:34 45.64671 11.68928 33058 ft 485 kts 165°
2026-04-24 21:34 45.58488 11.72675 33056 ft 481 kts 146°
2026-04-24 21:35 45.53185 11.78425 33059 ft 481 kts 139°
2026-04-24 21:35 45.47998 11.84461 33062 ft 481 kts 140°
2026-04-24 21:36 45.42703 11.90321 33060 ft 481 kts 141°
2026-04-24 21:36 45.37392 11.96010 33059 ft 481 kts 142°
2026-04-24 21:37 45.32024 12.01714 33047 ft 481 kts 142°
2026-04-24 21:37 45.26660 12.07413 33040 ft 481 kts 141°
2026-04-24 21:38 45.21317 12.13098 33037 ft 480 kts 141°
2026-04-24 21:38 45.15963 12.18791 33036 ft 480 kts 141°
2026-04-24 21:39 45.10647 12.24434 33038 ft 480 kts 141°
2026-04-24 21:39 45.04980 12.29488 33048 ft 483 kts 154°
2026-04-24 21:40 44.98684 12.32715 33046 ft 485 kts 161°
2026-04-24 21:40 44.92230 12.35603 33046 ft 485 kts 160°
2026-04-24 21:41 44.85824 12.38618 33046 ft 484 kts 159°
2026-04-24 21:41 44.79493 12.41699 33040 ft 484 kts 159°
2026-04-24 21:42 44.73129 12.44812 33048 ft 484 kts 159°
2026-04-24 21:42 44.66751 12.47922 33047 ft 484 kts 159°
2026-04-24 21:43 44.60401 12.51005 33483 ft 472 kts 159°
2026-04-24 21:43 44.57310 12.52039 33631 ft 445 kts 171°
2026-04-24 21:43 44.54427 12.53669 30799 ft 465 kts 150°
2026-04-24 21:43 44.51604 12.55736 31507 ft 458 kts 154°
2026-04-24 21:44 44.48602 12.57359 31639 ft 467 kts 160°
2026-04-24 21:44 44.45470 12.58733 31768 ft 475 kts 161°
2026-04-24 21:44 44.42285 12.60066 31903 ft 481 kts 161°
2026-04-24 21:44 44.39053 12.61459 32072 ft 485 kts 160°
2026-04-24 21:45 44.35880 12.62887 32397 ft 485 kts 160°
2026-04-24 21:45 44.32681 12.64376 32768 ft 484 kts 159°
2026-04-24 21:45 44.29488 12.65893 33011 ft 484 kts 159°
2026-04-24 21:46 44.23111 12.68939 33064 ft 483 kts 159°
2026-04-24 21:46 44.16742 12.71981 33071 ft 483 kts 159°
2026-04-24 21:47 44.10371 12.75020 33076 ft 483 kts 159°
2026-04-24 21:47 44.04046 12.78031 33072 ft 483 kts 159°
2026-04-24 21:48 43.97674 12.81058 33075 ft 483 kts 159°
2026-04-24 21:48 43.91314 12.84072 33075 ft 482 kts 159°
2026-04-24 21:49 43.84995 12.87059 33074 ft 482 kts 159°
2026-04-24 21:49 43.78641 12.90057 33075 ft 482 kts 159°
2026-04-24 21:50 43.72281 12.93051 33077 ft 482 kts 159°
2026-04-24 21:50 43.65967 12.96016 33074 ft 482 kts 159°
2026-04-24 21:51 43.59611 12.98994 33080 ft 482 kts 159°
2026-04-24 21:51 43.53254 13.01966 33083 ft 481 kts 159°
2026-04-24 21:52 43.46924 13.04913 33086 ft 481 kts 159°
2026-04-24 21:52 43.40567 13.07857 33083 ft 480 kts 159°
2026-04-24 21:53 43.34264 13.10780 33095 ft 480 kts 159°
2026-04-24 21:53 43.27928 13.13718 33099 ft 480 kts 159°
2026-04-24 21:54 43.21586 13.16654 33098 ft 480 kts 159°
2026-04-24 21:54 43.15303 13.19555 33104 ft 479 kts 159°
2026-04-24 21:55 43.08976 13.22471 33112 ft 479 kts 159°
2026-04-24 21:55 43.02663 13.25374 33109 ft 479 kts 159°
2026-04-24 21:56 42.96346 13.28272 33118 ft 479 kts 159°
2026-04-24 21:56 42.90031 13.31163 33116 ft 478 kts 159°
2026-04-24 21:57 42.83709 13.34051 33117 ft 478 kts 159°
2026-04-24 21:57 42.77435 13.36911 33129 ft 478 kts 159°
2026-04-24 21:58 42.71113 13.39786 33109 ft 478 kts 159°
2026-04-24 21:58 42.64794 13.42641 33133 ft 478 kts 159°
2026-04-24 21:59 42.58516 13.45476 33141 ft 477 kts 159°
2026-04-24 21:59 42.52207 13.48328 33123 ft 478 kts 159°
2026-04-24 22:00 42.45884 13.51184 33124 ft 477 kts 159°
2026-04-24 22:00 42.39575 13.54027 33130 ft 477 kts 159°
2026-04-24 22:01 42.33306 13.56846 33127 ft 478 kts 159°
2026-04-24 22:01 42.26978 13.59685 33136 ft 477 kts 159°
2026-04-24 22:02 42.20704 13.62495 33148 ft 478 kts 159°
2026-04-24 22:02 42.14391 13.65315 33142 ft 477 kts 159°
2026-04-24 22:03 42.08076 13.68131 33141 ft 477 kts 159°
2026-04-24 22:03 42.01768 13.70937 33139 ft 478 kts 159°
2026-04-24 22:04 41.95449 13.73743 33138 ft 478 kts 159°
2026-04-24 22:04 41.89158 13.76526 33135 ft 478 kts 159°
2026-04-24 22:05 41.82820 13.79317 33137 ft 478 kts 159°
2026-04-24 22:05 41.76501 13.82105 33131 ft 478 kts 159°
2026-04-24 22:06 41.70176 13.84896 33127 ft 479 kts 159°
2026-04-24 22:06 41.63883 13.87667 33129 ft 478 kts 159°
2026-04-24 22:07 41.57625 13.90697 33126 ft 475 kts 151°
2026-04-24 22:07 41.52316 13.95825 33122 ft 469 kts 131°
2026-04-24 22:08 41.48456 14.02717 33128 ft 467 kts 122°
2026-04-24 22:08 41.44510 14.09619 33122 ft 469 kts 129°
2026-04-24 22:09 41.39990 14.15920 33120 ft 470 kts 133°
2026-04-24 22:09 41.35291 14.21911 33114 ft 471 kts 134°
2026-04-24 22:10 41.30533 14.27908 33114 ft 470 kts 134°
2026-04-24 22:10 41.25786 14.33915 33105 ft 470 kts 134°
2026-04-24 22:11 41.21053 14.39914 33112 ft 470 kts 134°
2026-04-24 22:11 41.16314 14.45911 33110 ft 470 kts 134°
2026-04-24 22:12 41.11570 14.51900 33115 ft 470 kts 134°
2026-04-24 22:12 41.06847 14.57850 33109 ft 470 kts 134°
2026-04-24 22:13 41.02095 14.63824 33115 ft 470 kts 134°
2026-04-24 22:13 40.97353 14.69739 33114 ft 470 kts 134°
2026-04-24 22:14 40.92578 14.75692 33115 ft 471 kts 134°
2026-04-24 22:14 40.87810 14.81647 33107 ft 471 kts 134°
2026-04-24 22:15 40.83075 14.87558 33115 ft 471 kts 134°
2026-04-24 22:15 40.78301 14.93504 33106 ft 471 kts 134°
2026-04-24 22:16 40.73525 14.99442 33108 ft 471 kts 134°
2026-04-24 22:16 40.68746 15.05369 33100 ft 471 kts 134°
2026-04-24 22:17 40.63969 15.11282 33111 ft 472 kts 134°
2026-04-24 22:17 40.59212 15.17159 33107 ft 472 kts 134°
2026-04-24 22:18 40.54414 15.23073 33118 ft 472 kts 134°
2026-04-24 22:18 40.50420 15.27987 33120 ft 472 kts 134°
2026-04-24 22:19 40.45636 15.33862 33139 ft 473 kts 134°
2026-04-24 22:19 40.40024 15.40734 33137 ft 473 kts 134°
2026-04-24 22:20 40.36006 15.45617 33129 ft 473 kts 134°
2026-04-24 22:20 40.30387 15.52457 33133 ft 473 kts 134°
2026-04-24 22:21 40.26346 15.57384 33137 ft 473 kts 134°
2026-04-24 22:21 40.21548 15.63227 33130 ft 473 kts 134°
2026-04-24 22:22 40.16722 15.69092 33129 ft 473 kts 133°
2026-04-24 22:22 40.11891 15.74951 33128 ft 474 kts 133°
2026-04-24 22:23 40.07056 15.80803 33130 ft 474 kts 133°
2026-04-24 22:23 40.02238 15.86622 33128 ft 474 kts 133°
2026-04-24 22:24 39.97393 15.92462 33131 ft 473 kts 133°
2026-04-24 22:24 39.92551 15.98286 33126 ft 473 kts 133°
2026-04-24 22:25 39.87744 16.04056 33117 ft 473 kts 133°
2026-04-24 22:25 39.82907 16.09851 33123 ft 472 kts 133°
2026-04-24 22:25 39.80493 16.12739 32649 ft 470 kts 133°
2026-04-24 22:26 39.78099 16.15587 31967 ft 463 kts 133°
2026-04-24 22:26 39.76521 16.17460 31551 ft 464 kts 133°
2026-04-24 22:26 39.74512 16.19843 31304 ft 443 kts 133°
2026-04-24 22:26 39.72247 16.22528 30615 ft 440 kts 133°
2026-04-24 22:27 39.69935 16.25297 29907 ft 460 kts 133°
2026-04-24 22:27 39.67569 16.28131 29073 ft 463 kts 133°
2026-04-24 22:27 39.65200 16.30957 28246 ft 458 kts 133°
2026-04-24 22:27 39.62865 16.33735 27452 ft 453 kts 133°
2026-04-24 22:28 39.60553 16.36481 26687 ft 447 kts 133°
2026-04-24 22:28 39.58276 16.39185 25936 ft 441 kts 133°
2026-04-24 22:28 39.56021 16.41862 25205 ft 436 kts 133°
2026-04-24 22:28 39.53795 16.44503 24484 ft 431 kts 133°
2026-04-24 22:29 39.49442 16.49664 23004 ft 422 kts 133°
2026-04-24 22:29 39.47287 16.52217 22204 ft 418 kts 133°
2026-04-24 22:29 39.45145 16.54752 21424 ft 415 kts 133°
2026-04-24 22:30 39.43018 16.57267 20673 ft 413 kts 133°
2026-04-24 22:30 39.40905 16.59764 19924 ft 410 kts 133°
2026-04-24 22:30 39.38798 16.62250 19203 ft 408 kts 134°
2026-04-24 22:30 39.36707 16.64716 18502 ft 406 kts 134°
2026-04-24 22:31 39.34625 16.67169 17706 ft 403 kts 134°
2026-04-24 22:31 39.32561 16.69598 16920 ft 400 kts 134°
2026-04-24 22:31 39.30509 16.72010 16146 ft 397 kts 134°
2026-04-24 22:31 39.28474 16.74402 15400 ft 394 kts 135°
2026-04-24 22:32 39.26481 16.76742 14675 ft 391 kts 135°
2026-04-24 22:32 39.24476 16.79093 13956 ft 388 kts 135°
2026-04-24 22:32 39.22480 16.81433 13164 ft 384 kts 135°
2026-04-24 22:32 39.20510 16.83739 12379 ft 380 kts 135°
2026-04-24 22:33 39.18560 16.86021 11611 ft 375 kts 135°
2026-04-24 22:33 39.16643 16.88275 10863 ft 370 kts 135°
2026-04-24 22:33 39.14759 16.90509 10142 ft 366 kts 135°
2026-04-24 22:33 39.12917 16.92705 9362 ft 364 kts 135°
2026-04-24 22:34 39.11064 16.94921 8575 ft 363 kts 135°
2026-04-24 22:34 39.09265 16.97071 7816 ft 342 kts 135°
2026-04-24 22:34 39.07549 16.99099 7064 ft 327 kts 136°
2026-04-24 22:34 39.05741 17.00804 6318 ft 318 kts 148°
2026-04-24 22:35 39.03710 17.01844 5554 ft 312 kts 166°
2026-04-24 22:35 39.01560 17.02036 4860 ft 306 kts 185°
2026-04-24 22:35 38.99577 17.01414 4472 ft 289 kts 202°
2026-04-24 22:35 38.97872 17.00165 4088 ft 278 kts 219°
2026-04-24 22:36 38.96525 16.98429 3721 ft 272 kts 236°
2026-04-24 22:36 38.95578 16.96358 3605 ft 269 kts 248°
2026-04-24 22:36 38.94822 16.94167 3588 ft 268 kts 250°
2026-04-24 22:36 38.94099 16.91945 3592 ft 271 kts 250°
2026-04-24 22:37 38.93374 16.89719 3581 ft 268 kts 250°
2026-04-24 22:37 38.92649 16.87505 3588 ft 269 kts 250°
2026-04-24 22:37 38.91916 16.85273 3366 ft 274 kts 249°
2026-04-24 22:37 38.91179 16.83051 3042 ft 270 kts 250°
2026-04-24 22:38 38.90454 16.80870 3009 ft 264 kts 249°
2026-04-24 22:38 38.89730 16.78695 2996 ft 264 kts 249°
2026-04-24 22:38 38.89008 16.76532 2993 ft 263 kts 249°
2026-04-24 22:38 38.88286 16.74374 2959 ft 261 kts 248°
2026-04-24 22:39 38.87590 16.72299 2881 ft 238 kts 249°
2026-04-24 22:39 38.86977 16.70482 2840 ft 208 kts 249°
2026-04-24 22:39 38.86419 16.68812 2896 ft 201 kts 250°
2026-04-24 22:39 38.85898 16.67158 2890 ft 199 kts 259°
2026-04-24 22:40 38.85890 16.65439 2916 ft 191 kts 282°
2026-04-24 22:40 38.86059 16.63873 2864 ft 173 kts 281°
2026-04-24 22:40 38.86217 16.62339 2907 ft 171 kts 281°
2026-04-24 22:40 38.86374 16.60837 2894 ft 169 kts 281°
2026-04-24 22:41 38.86533 16.59336 2913 ft 169 kts 281°
2026-04-24 22:41 38.86694 16.57845 2912 ft 169 kts 281°
2026-04-24 22:41 38.86856 16.56358 2923 ft 168 kts 281°
2026-04-24 22:41 38.87016 16.54891 2933 ft 168 kts 281°
2026-04-24 22:42 38.87182 16.53406 2917 ft 168 kts 280°
2026-04-24 22:42 38.87346 16.51923 2931 ft 167 kts 279°
2026-04-24 22:42 38.87513 16.50443 2924 ft 167 kts 279°
2026-04-24 22:42 38.87677 16.48965 2922 ft 168 kts 279°
2026-04-24 22:43 38.87845 16.47489 2940 ft 167 kts 279°
2026-04-24 22:43 38.88014 16.46011 2949 ft 167 kts 279°
2026-04-24 22:43 38.88185 16.44534 2911 ft 168 kts 279°
2026-04-24 22:43 38.88356 16.43051 2757 ft 168 kts 280°
2026-04-24 22:44 38.88526 16.41587 2510 ft 163 kts 280°
2026-04-24 22:44 38.88689 16.40165 2247 ft 160 kts 279°
2026-04-24 22:44 38.88851 16.38759 2037 ft 159 kts 280°
2026-04-24 22:44 38.89014 16.37354 1832 ft 159 kts 280°
2026-04-24 22:45 38.89175 16.35956 1621 ft 159 kts 280°
2026-04-24 22:45 38.89334 16.34559 1402 ft 158 kts 279°
2026-04-24 22:45 38.89486 16.33182 1165 ft 157 kts 279°
2026-04-24 22:45 38.89643 16.31795 950 ft 157 kts 279°
2026-04-24 22:46 38.89793 16.30412 729 ft 153 kts 280°
2026-04-24 22:46 38.89962 16.29035 532 ft 152 kts 279°
2026-04-24 22:46 38.90122 16.27712 297 ft 153 kts 279°
2026-04-24 22:46 38.90292 16.26359 111 ft 159 kts 279°
2026-04-24 22:47 38.90448 16.25030 43 ft 130 kts 278°
2026-04-24 22:47 38.90550 16.24149 35 ft 74 kts 278°
2026-04-24 22:47 38.90624 16.23673 40 ft 35 kts 298°
2026-04-24 22:47 38.90735 16.23500 41 ft 18 kts 329°
2026-04-24 22:48 38.90830 16.23515 37 ft 11 kts 48°
2026-04-24 22:48 38.90836 16.23603 39 ft 12 kts 97°
2026-04-24 22:48 38.90824 16.23711 39 ft 12 kts 98°
2026-04-24 22:48 38.90838 16.23783 39 ft 6 kts 41°
2026-04-24 22:49 38.90872 16.23821 39 ft 5 kts 57°
2026-04-24 22:49 38.90877 16.23866 39 ft 7 kts 87°
2026-04-24 22:49 38.90873 16.23920 39 ft 8 kts 98°
2026-04-24 22:49 38.90881 16.23957 39 ft 2 kts 53°
2026-04-24 22:50 38.90900 16.23964 39 ft 2 kts
2026-04-24 22:50 38.90916 16.23966 39 ft 4 kts
2026-04-24 22:50 38.90937 16.23969 39 ft 2 kts
2026-04-24 22:50 38.90945 16.23970 39 ft 0 kts
2026-04-24 23:04 38.90859 16.23957 39 ft 0 kts
2026-04-24 23:04 38.90926 16.23967 39 ft 0 kts